Hourly Data Report for September 15, 2001

SHERBROOKE A
QUEBEC

45°26'00.000" N
71°41'00.000" W
241.40 m
7028124
71610
YSC

Download Data

Hourly Data (September 2001)
Hourly Data Report for September 15, 2001
TIME
LST
Temp Definition
°C
Dew Point Definition
°C
Rel Hum Definition
%
Precip. Amount Definition
mm

Wind Dir Definition
10's deg

Wind Spd Definition
km/h
Visibility Definition
km
Stn Press Definition
kPa
Hmdx Definition


Wind Chill Definition


Weather Definition


00:00 3.0 2.6 97   11 7 15.0 99.34      
01:00 2.3 1.8 96     0 3.9 99.33      
02:00 1.7 1.2 96   26 4 15.0 99.31      
03:00 0.5 0.1 97     0 15.0 99.33      
04:00 0.2 -0.2 97     0 2.1 99.37      
05:00 -0.6 -1.0 97   23 6 15.0 99.40   -3  
06:00 0.6 0.4 99     0 15.0 99.43      
07:00 4.5 3.7 95   24 7 24.1 99.47     Clear
08:00 6.9 5.3 90   25 7 24.1 99.48     Clear
09:00 9.7 4.8 71   25 9 24.1 99.47     Clear
10:00 11.4 3.5 58   32 9 24.1 99.45     Mainly Clear
11:00 12.7 3.0 52   27 17 24.1 99.38     Mainly Clear
12:00 13.8 3.5 50   29 15 24.1 99.31     Mainly Clear
13:00 15.0 3.9 47   28 9 24.1 99.23     Mainly Clear
14:00 15.6 2.8 42   30 17 24.1 99.16     Mainly Clear
15:00 14.8 3.5 47   27 13 24.1 99.10     Mostly Cloudy
16:00 15.6 4.9 49   26 11 24.1 99.05     Mostly Cloudy
17:00 14.4 5.0 53   27 11 15.0 99.04      
18:00 9.6 6.3 80   21 7 15.0 99.01      
19:00 9.4 5.4 76   20 7 15.0 99.00      
20:00 5.6 3.6 87   20 4 15.0 99.03      
21:00 4.8 3.4 91   16 4 15.0 99.02      
22:00 4.1 3.4 95     0 15.0 99.02      
23:00 3.2 2.5 95   7 4 15.0 99.01      

Notes on Data Quality.

Legend

  • E = Estimated
  • M = Missing
  • NA = Not Available*
  • [empty] = Indicates an unobserved value
Date modified: